EW7525 Weather Reports


time (UTC)temp
C
wind
direction
speed
KPH
gust
KPH
rain 1hr
cm
rain 24hr
cm
rain mn
cm
humidity
%
barometer
mb
20260503181205 16 262 0.0 0.0 0.00 0.00 0.00 1 1011.7
20260503180433 16 253 0.0 0.0 0.00 0.00 0.00 1 1011.8
20260503175933 16 263 0.0 0.0 0.00 0.00 0.00 1 1011.8
20260503175433 16 296 0.0 0.0 0.00 0.00 0.00 1 1011.7
20260503175159 16 275 0.0 0.0 0.00 0.00 0.00 1 1011.8
20260503174427 16 271 0.0 0.0 0.00 0.00 0.00 1 1011.9
20260503173923 16 273 0.0 0.0 0.00 0.00 0.00 1 1011.8
20260503173423 16 268 0.0 0.0 0.00 0.00 0.00 1 1011.8
20260503173151 16 277 0.0 0.0 0.00 0.00 0.00 1 1011.7
20260503172646 16 277 0.0 0.0 0.00 0.00 0.00 1 1011.7
20260503171915 16 250 0.0 0.0 0.00 0.00 0.00 1 1011.6
20260503171412 15 263 0.0 0.0 0.00 0.00 0.00 1 1011.6
20260503170911 15 252 0.0 0.0 0.00 0.00 0.00 1 1011.6
20260503170412 15 252 0.0 1.6 0.00 0.00 0.00 1 1011.6
20260503160131 13 263 0.0 0.0 0.00 0.00 0.00 1 1011.5
20260503150845 12 253 0.0 0.0 0.00 0.00 0.00 1 1011.1
20260503150345 12 253 0.0 0.0 0.00 0.00 0.00 1 1011.0
20260503131330 12 250 0.0 0.0 0.00 0.00 0.00 1 1009.6
20260503130830 12 250 0.0 0.0 0.00 0.00 0.00 1 1009.6
20260503130329 12 247 0.0 0.0 0.00 0.00 0.00 1 1009.5
20260503110806 12 255 0.0 0.0 0.00 0.00 0.00 1 1009.6
20260503110253 12 255 0.0 0.0 0.00 0.00 0.00 1 1009.6
20260503100248 12 261 0.0 0.0 0.00 0.00 0.00 1 1009.6
20260503100244 12 252 0.0 0.0 0.00 0.00 0.00 1 1009.5
20260503090230 12 246 0.0 0.0 0.00 0.00 0.00 1 1010.0
20260503081219 12 253 0.0 0.0 0.00 0.00 0.00 1 1010.3
20260503080732 12 258 0.0 0.0 0.00 0.00 0.00 1 1010.3
20260503080449 12 265 0.0 0.0 0.00 0.00 0.00 1 1010.3
20260503072711 12 263 0.0 0.0 0.00 0.00 0.00 1 1010.4
20260503072441 12 245 0.0 0.0 0.00 0.00 0.00 1 1010.5
20260503071709 12 260 0.0 0.0 0.00 0.00 0.00 1 1010.4
20260503071705 12 261 0.0 0.0 0.00 0.00 0.00 1 1010.5
20260503071308 12 259 0.0 0.0 0.00 0.00 0.00 1 1010.4
20260503070159 12 256 0.0 0.0 0.00 0.00 0.00 1 1010.4
20260503054645 12 257 0.0 0.0 0.00 0.00 0.00 1 1010.8
20260503054145 12 248 0.0 0.0 0.00 0.00 0.00 1 1010.9
20260503053643 12 258 0.0 0.0 0.00 0.00 0.00 1 1010.9
20260503053142 12 257 0.0 0.0 0.00 0.00 0.00 1 1010.9
20260503052911 12 266 0.0 0.0 0.00 0.00 0.00 1 1010.9
20260503052139 12 254 0.0 0.0 0.00 0.00 0.00 1 1011.0
20260503051637 12 261 0.0 0.0 0.00 0.00 0.00 1 1010.9
20260503051137 12 256 0.0 0.0 0.00 0.00 0.00 1 1011.0
20260503050637 12 258 0.0 0.0 0.00 0.00 0.00 1 1010.9
20260503050135 12 259 0.0 0.0 0.00 0.00 0.00 1 1010.9
20260503045635 12 260 0.0 0.0 0.00 0.00 0.00 1 1011.0
20260503045403 12 261 0.0 0.0 0.00 0.00 0.00 1 1010.9
20260503044905 12 260 0.0 0.0 0.00 0.00 0.00 1 1011.0
20260503044130 12 286 0.0 0.0 0.00 0.00 0.00 1 1010.9
20260503043630 12 269 0.0 0.0 0.00 0.00 0.00 1 1010.9
20260503043131 12 261 0.0 0.0 0.00 0.00 0.00 1 1010.8
20260503042630 12 263 0.0 0.0 0.00 0.00 0.00 1 1010.8
20260503042130 12 263 0.0 0.0 0.00 0.00 0.00 1 1010.8
20260503041628 12 263 0.0 0.0 0.00 0.00 0.00 1 1010.8
20260503041126 12 247 0.0 0.0 0.00 0.00 0.00 1 1010.7
20260503040626 12 274 0.0 0.0 0.00 0.00 0.00 1 1010.8
20260503040126 13 256 0.0 0.0 0.00 0.00 0.00 1 1010.7
20260503035625 12 254 0.0 0.0 0.00 0.00 0.00 1 1010.5
20260503035124 12 252 0.0 0.0 0.00 0.00 0.00 1 1010.5
20260503034622 13 267 0.0 0.0 0.00 0.00 0.00 1 1010.4
20260503034122 13 252 0.0 0.0 0.00 0.00 0.00 1 1010.4
20260503033621 13 258 0.0 0.0 0.00 0.00 0.00 1 1010.4
20260503033351 13 267 0.0 0.0 0.00 0.00 0.00 1 1010.3
20260503032619 13 267 0.0 0.0 0.00 0.00 0.00 1 1010.2
20260503032119 13 268 0.0 0.0 0.00 0.00 0.00 1 1010.2
20260503031615 13 263 0.0 0.0 0.00 0.00 0.00 1 1010.2
20260503031116 13 263 0.0 0.0 0.00 0.00 0.00 1 1010.1
20260503030614 13 259 0.0 0.0 0.00 0.00 0.00 1 1010.1
20260503030116 13 265 0.0 0.0 0.00 0.00 0.00 1 1010.1
20260503025613 13 287 0.0 0.0 0.00 0.00 0.00 1 1010.2
20260503025112 13 257 0.0 0.0 0.00 0.00 0.00 1 1010.2
20260503024610 13 269 0.0 0.0 0.00 0.00 0.00 1 1010.2
20260503024112 13 275 0.0 0.0 0.00 0.00 0.00 1 1010.2
20260503023838 13 279 0.0 0.0 0.00 0.00 0.00 1 1010.2
20260503023339 13 248 0.0 1.6 0.00 0.00 0.00 1 1010.2
20260503022608 13 271 0.0 1.6 0.00 0.00 0.00 1 1010.2
20260503022107 13 266 0.0 0.0 0.00 0.00 0.00 1 1010.2
20260503021607 14 254 0.0 0.0 0.00 0.00 0.00 1 1010.2
20260503021104 14 252 0.0 0.0 0.00 0.00 0.00 1 1010.2
20260503020621 14 288 0.0 0.0 0.00 0.00 0.00 1 1010.2
20260503020617 14 271 0.0 0.0 0.00 0.00 0.00 1 1010.2
20260503015603 14 273 0.0 0.0 0.00 0.00 0.00 1 1010.3
20260503015059 14 257 0.0 1.6 0.00 0.00 0.00 1 1010.3
20260503014558 14 269 0.0 1.6 0.00 0.00 0.00 1 1010.3
20260503014059 14 276 0.0 0.0 0.00 0.00 0.00 1 1010.3
20260503013558 14 263 0.0 1.6 0.00 0.00 0.00 1 1010.3
20260503013337 14 254 0.0 0.0 0.00 0.00 0.00 1 1010.5
20260503013101 14 270 0.0 1.6 0.00 0.00 0.00 1 1010.5
20260503012056 15 254 0.0 0.0 0.00 0.00 0.00 1 1010.5
20260503011607 15 254 0.0 0.0 0.00 0.00 0.00 1 1010.5
20260503011325 15 281 0.0 0.0 0.00 0.00 0.00 1 1010.5
20260503010554 15 267 0.0 0.0 0.00 0.00 0.00 1 1010.5
20260503010107 15 254 0.0 11.3 0.00 0.00 0.00 1 1010.5
20260503005555 15 267 1.6 12.9 0.00 0.00 0.00 1 1010.5
20260503005050 15 262 0.0 12.9 0.00 0.00 0.00 1 1010.5
20260503004822 15 265 0.0 0.0 0.00 0.00 0.00 1 1010.5
20260503004051 15 268 0.0 0.0 0.00 0.00 0.00 1 1010.6
20260503003822 15 279 0.0 0.0 0.00 0.00 0.00 1 1010.6
20260503003050 15 266 0.0 0.0 0.00 0.00 0.00 1 1010.5
20260503002551 15 265 0.0 0.0 0.00 0.00 0.00 1 1010.5
20260503002048 15 246 1.6 14.5 0.00 0.00 0.00 1 1010.5
20260503001545 16 263 1.6 14.5 0.00 0.00 0.00 1 1010.6
20260503001047 16 274 1.6 16.1 0.00 0.00 0.00 1 1010.5
20260503000558 16 240 1.6 16.1 0.00 0.00 0.00 1 1010.6
20260503000100 16 243 0.0 16.1 0.00 0.00 0.00 1 1010.6
20260502235818 16 258 0.0 1.6 0.00 0.00 0.00 4 1010.6
20260502235046 17 271 0.0 1.6 0.00 0.00 0.00 5 1010.6
20260502234550 17 262 0.0 0.0 0.00 0.00 0.00 6 1010.6
20260502234546 17 258 0.0 0.0 0.00 0.00 0.00 5 1010.6
20260502233547 17 262 0.0 0.0 0.00 0.00 0.00 8 1010.6
20260502233317 17 282 0.0 0.0 0.00 0.00 0.00 9 1010.6
20260502232545 17 292 0.0 0.0 0.00 0.00 0.00 12 1010.6
20260502232040 17 262 0.0 0.0 0.00 0.00 0.00 6 1010.7
20260502231538 17 212 0.0 0.0 0.00 0.00 0.00 3 1010.6
20260502231039 17 261 0.0 0.0 0.00 0.00 0.00 1 1010.8
20260502230538 17 269 0.0 0.0 0.00 0.00 0.00 1 1010.8
20260502230051 17 258 0.0 0.0 0.00 0.00 0.00 1 1010.9
20260502225809 17 269 0.0 0.0 0.00 0.00 0.00 1 1011.0
20260502225036 17 267 0.0 0.0 0.00 0.00 0.00 1 1011.0
20260502224536 17 263 0.0 0.0 0.00 0.00 0.00 1 1011.1
20260502224035 17 250 0.0 0.0 0.00 0.00 0.00 1 1011.2
20260502223535 17 261 0.0 0.0 0.00 0.00 0.00 1 1011.2
20260502223039 17 260 0.0 0.0 0.00 0.00 0.00 1 1011.2
20260502222807 17 240 0.0 0.0 0.00 0.00 0.00 1 1011.3
20260502222035 17 225 0.0 0.0 0.00 0.00 0.00 1 1011.3
20260502221536 17 247 0.0 0.0 0.00 0.00 0.00 1 1011.4
20260502221306 17 257 0.0 0.0 0.00 0.00 0.00 1 1011.5
20260502220540 17 271 0.0 0.0 0.00 0.00 0.00 1 1011.5
20260502220533 17 270 0.0 0.0 0.00 0.00 0.00 1 1011.5
20260502215528 17 260 0.0 0.0 0.00 0.00 0.00 1 1011.6
20260502215300 17 273 0.0 0.0 0.00 0.00 0.00 1 1011.6
20260502214800 17 268 0.0 0.0 0.00 0.00 0.00 1 1011.6
20260502214257 17 262 0.0 3.2 0.00 0.00 0.00 1 1011.6
20260502213528 17 271 0.0 3.2 0.00 0.00 0.00 1 1011.6
20260502213026 17 269 0.0 0.0 0.00 0.00 0.00 1 1011.6
20260502212523 17 275 0.0 9.7 0.00 0.00 0.00 1 1011.6
20260502212024 17 270 0.0 9.7 0.00 0.00 0.00 1 1011.7
20260502211524 17 240 0.0 0.0 0.00 0.00 0.00 1 1011.8
20260502211021 17 271 0.0 9.7 0.00 0.00 0.00 1 1011.8
20260502210520 17 253 0.0 9.7 0.00 0.00 0.00 1 1011.8
20260502210019 17 275 0.0 1.6 0.00 0.00 0.00 1 1011.9
20260502205519 17 251 0.0 0.0 0.00 0.00 0.00 1 1011.9
20260502205515 17 259 0.0 0.0 0.00 0.00 0.00 1 1011.9
20260502204516 17 254 0.0 0.0 0.00 0.00 0.00 1 1011.9
20260502204015 17 267 0.0 0.0 0.00 0.00 0.00 1 1012.0
20260502203514 17 252 0.0 0.0 0.00 0.00 0.00 1 1012.1
20260502203015 17 286 0.0 0.0 0.00 0.00 0.00 1 1012.0
20260502202738 17 277 0.0 0.0 0.00 0.00 0.00 1 1012.1
20260502202008 17 274 0.0 14.5 0.00 0.00 0.00 1 1012.1
20260502201616 18 269 0.0 0.0 0.00 0.00 0.00 1 1012.1
20260502201508 18 276 0.0 14.5 0.00 0.00 0.00 1 1012.1
20260502201238 18 275 0.0 3.2 0.00 0.00 0.00 1 1012.1
20260502200508 18 275 0.0 3.2 0.00 0.00 0.00 1 1012.1
20260502195505 18 248 0.0 0.0 0.00 0.00 0.00 1 1012.1
20260502195006 18 259 0.0 9.7 0.00 0.00 0.00 1 1012.2
20260502194506 18 275 0.0 9.7 0.00 0.00 0.00 1 1012.2
20260502194004 18 247 0.0 4.8 0.00 0.00 0.00 1 1012.2
20260502193502 18 254 0.0 1.6 0.00 0.00 0.00 1 1012.2
20260502193015 18 254 0.0 3.2 0.00 0.00 0.00 1 1012.2
20260502192458 18 259 0.0 4.8 0.00 0.00 0.00 1 1012.2
20260502191958 18 263 0.0 4.8 0.00 0.00 0.00 1 1012.3
20260502191458 18 263 0.0 1.6 0.00 0.00 0.00 1 1012.2
20260502190957 18 252 0.0 6.4 0.00 0.00 0.00 1 1012.3
20260502190500 17 271 0.0 0.0 0.00 0.00 0.00 1 1012.3
20260502190456 18 234 0.0 6.4 0.00 0.00 0.00 1 1012.3
20260502185455 17 254 0.0 0.0 0.00 0.00 0.00 1 1012.3
20260502184951 17 267 0.0 0.0 0.00 0.00 0.00 1 1012.3
20260502184451 17 236 0.0 0.0 0.00 0.00 0.00 1 1012.2
20260502183953 17 161 0.0 0.0 0.00 0.00 0.00 1 1012.2
20260502183450 17 225 0.0 0.0 0.00 0.00 0.00 1 1012.3
20260502182951 16 183 0.0 0.0 0.00 0.00 0.00 1 1012.2
20260502182448 16 224 0.0 0.0 0.00 0.00 0.00 1 1012.2
20260502181947 16 186 0.0 0.0 0.00 0.00 0.00 1 1012.2
20260502181447 16 180 0.0 0.0 0.00 0.00 0.00 1 1012.2